• In United Kingdom
  • List of Countries
  • For 7 days
  • Water Temperature
  • Satellite Maps
  • Weather Map
  • Weather Widgets
  • user-avatar
    Login

    Hourly Weather Preston

    Today, 22 January, Monday

    Time Temperature Precipitation Wind Pressure Humidity
    00:00 +4°C° 0 mm 7 mps 750 mmHg 90%
    01:00 +4°C° 0 mm 7 mps 750 mmHg 90%
    02:00 +4°C° 0 mm 7 mps 750 mmHg 90%
    03:00 +4°C° 0 mm 7 mps 751 mmHg 90%
    04:00 +4°C° 0 mm 7 mps 751 mmHg 90%
    05:00 +4°C° 0 mm 6 mps 751 mmHg 90%
    06:00 +4°C° 0 mm 6 mps 752 mmHg 90%
    07:00 +4°C° 0 mm 6 mps 752 mmHg 89%
    08:00 +4°C° 0 mm 6 mps 752 mmHg 89%
    09:00 +4°C° 0 mm 6 mps 753 mmHg 89%
    10:00 +4°C° 0 mm 6 mps 754 mmHg 88%
    11:00 +5°C° 0 mm 7 mps 754 mmHg 87%
    12:00 +5°C° 0 mm 7 mps 754 mmHg 86%
    13:00 +5°C° 0.1 mm 7 mps 755 mmHg 85%
    14:00 +5°C° 0.1 mm 7 mps 755 mmHg 85%
    15:00 +5°C° 0.1 mm 7 mps 756 mmHg 84%
    16:00 +5°C° 0 mm 6 mps 756 mmHg 85%
    17:00 +5°C° 0 mm 6 mps 757 mmHg 85%
    18:00 +5°C° 0 mm 5 mps 757 mmHg 85%
    19:00 +5°C° 0 mm 5 mps 757 mmHg 86%
    20:00 +5°C° 0 mm 5 mps 758 mmHg 87%
    21:00 +5°C° 0 mm 5 mps 758 mmHg 88%
    22:00 +5°C° 0 mm 5 mps 758 mmHg 89%
    23:00 +5°C° 0 mm 5 mps 757 mmHg 91%

    Tomorrow, 23 January, Tuesday

    Time Temperature Precipitation Wind Pressure Humidity
    00:00 +3°C° 0 mm 5 mps 757 mmHg 92%
    01:00 +5°C° 0 mm 5 mps 757 mmHg 92%
    02:00 +4°C° 0 mm 6 mps 756 mmHg 93%
    03:00 +4°C° 0 mm 6 mps 756 mmHg 93%
    04:00 +4°C° 0.1 mm 6 mps 755 mmHg 93%
    05:00 +5°C° 0.1 mm 6 mps 754 mmHg 93%
    06:00 +6°C° 0.1 mm 7 mps 753 mmHg 93%
    07:00 +6°C° 0.3 mm 7 mps 753 mmHg 93%
    08:00 +8°C° 0.3 mm 7 mps 752 mmHg 94%
    09:00 +9°C° 0.3 mm 7 mps 752 mmHg 94%
    10:00 +9°C° 0.1 mm 8 mps 751 mmHg 91%
    11:00 +10°C° 0.1 mm 9 mps 751 mmHg 88%
    12:00 +10°C° 0.1 mm 9 mps 751 mmHg 85%
    13:00 +10°C° 0.3 mm 9 mps 751 mmHg 85%
    14:00 +9°C° 0.3 mm 10 mps 751 mmHg 85%
    15:00 +9°C° 0.3 mm 10 mps 751 mmHg 85%
    16:00 +9°C° 0.3 mm 10 mps 751 mmHg 85%
    17:00 +8°C° 0.3 mm 9 mps 751 mmHg 85%
    18:00 +8°C° 0.3 mm 9 mps 752 mmHg 84%
    19:00 +7°C° 0.1 mm 8 mps 752 mmHg 85%
    20:00 +8°C° 0.1 mm 7 mps 752 mmHg 85%
    21:00 +7°C° 0.1 mm 6 mps 752 mmHg 85%
    22:00 +8°C° 0 mm 7 mps 751 mmHg 86%
    23:00 +8°C° 0 mm 7 mps 751 mmHg 86%

    Day after tomorrow, 24 January, Wednesday

    Time Temperature Precipitation Wind Pressure Humidity
    00:00 +7°C° 0 mm 8 mps 750 mmHg 87%
    01:00 +8°C° 0.3 mm 9 mps 749 mmHg 86%
    02:00 +8°C° 0.3 mm 10 mps 747 mmHg 85%
    03:00 +9°C° 0.3 mm 11 mps 746 mmHg 83%
    04:00 +9°C° 1.4 mm 12 mps 745 mmHg 83%
    05:00 +9°C° 1.4 mm 13 mps 744 mmHg 83%
    06:00 +9°C° 1.4 mm 13 mps 743 mmHg 83%
    07:00 +8°C° 1.1 mm 12 mps 744 mmHg 81%
    08:00 +7°C° 1.1 mm 11 mps 744 mmHg 79%
    09:00 +6°C° 1.1 mm 10 mps 745 mmHg 76%
    10:00 +6°C° 0.1 mm 10 mps 745 mmHg 73%
    11:00 +6°C° 0.1 mm 10 mps 745 mmHg 70%
    12:00 +6°C° 0.1 mm 9 mps 745 mmHg 67%
    13:00 +6°C° 0 mm 9 mps 745 mmHg 67%
    14:00 +6°C° 0 mm 9 mps 745 mmHg 67%
    15:00 +6°C° 0 mm 9 mps 745 mmHg 67%
    16:00 +6°C° 0.1 mm 9 mps 746 mmHg 70%
    17:00 +5°C° 0.1 mm 8 mps 746 mmHg 73%
    18:00 +5°C° 0.1 mm 8 mps 746 mmHg 75%
    19:00 +4°C° 0.2 mm 8 mps 747 mmHg 75%
    20:00 +4°C° 0.2 mm 8 mps 747 mmHg 75%
    21:00 +4°C° 0.2 mm 8 mps 747 mmHg 75%
    22:00 +4°C° 0.2 mm 8 mps 747 mmHg 75%
    23:00 +2°C° 0.1 mm 8 mps 748 mmHg 74%

    25 January, Thursday

    Time Temperature Precipitation Wind Pressure Humidity
    00:00 +2°C° 0.2 mm 8 mps 748 mmHg 74%
    01:00 +2°C° 0.2 mm 8 mps 748 mmHg 75%
    02:00 +2°C° 0.2 mm 8 mps 748 mmHg 76%
    03:00 +2°C° 0.2 mm 8 mps 748 mmHg 77%
    04:00 +2°C° 0.1 mm 8 mps 747 mmHg 78%
    05:00 +2°C° 0.1 mm 8 mps 747 mmHg 78%
    06:00 +3°C° 0.1 mm 7 mps 747 mmHg 79%
    07:00 +3°C° 0.1 mm 7 mps 747 mmHg 79%
    08:00 +2°C° 0.1 mm 8 mps 747 mmHg 79%
    09:00 +2°C° 0.1 mm 8 mps 748 mmHg 80%
    10:00 +2°C° 0.1 mm 8 mps 748 mmHg 76%
    11:00 +4°C° 0.1 mm 8 mps 747 mmHg 73%
    12:00 +5°C° 0.1 mm 8 mps 747 mmHg 69%
    13:00 +5°C° 0.2 mm 8 mps 747 mmHg 69%
    14:00 +5°C° 0.2 mm 8 mps 747 mmHg 70%
    15:00 +5°C° 0.2 mm 8 mps 746 mmHg 70%
    16:00 +4°C° 0.2 mm 8 mps 746 mmHg 72%
    17:00 +4°C° 0.2 mm 8 mps 746 mmHg 75%
    18:00 +2°C° 0.2 mm 8 mps 746 mmHg 78%
    19:00 +4°C° 0.3 mm 8 mps 747 mmHg 79%
    20:00 +4°C° 0.3 mm 7 mps 747 mmHg 81%
    21:00 +4°C° 0.3 mm 7 mps 748 mmHg 82%
    22:00 +4°C° 0.3 mm 7 mps 748 mmHg 82%
    23:00 +4°C° 0.3 mm 7 mps 749 mmHg 83%

    26 January, Friday

    Time Temperature Precipitation Wind Pressure Humidity
    00:00 +4°C° 0.3 mm 7 mps 749 mmHg 83%
    01:00 +3°C° 0.1 mm 7 mps 750 mmHg 84%
    02:00 +3°C° 0.1 mm 7 mps 751 mmHg 85%
    03:00 +3°C° 0.1 mm 7 mps 752 mmHg 86%
    04:00 +3°C° 0 mm 7 mps 753 mmHg 86%
    05:00 +3°C° 0 mm 6 mps 754 mmHg 85%
    06:00 +2°C° 0 mm 6 mps 755 mmHg 85%
    07:00 +2°C° 0 mm 6 mps 756 mmHg 84%
    08:00 +2°C° 0 mm 6 mps 758 mmHg 84%
    09:00 +2°C° 0 mm 6 mps 759 mmHg 83%
    10:00 +2°C° 0 mm 6 mps 760 mmHg 80%
    11:00 +3°C° 0 mm 5 mps 761 mmHg 76%
    12:00 +3°C° 0 mm 5 mps 761 mmHg 73%
    13:00 +3°C° 0 mm 5 mps 762 mmHg 71%
    14:00 +3°C° 0 mm 5 mps 763 mmHg 69%
    15:00 +3°C° 0 mm 5 mps 763 mmHg 67%
    16:00 +2°C° 0 mm 5 mps 764 mmHg 69%
    17:00 +1°C° 0 mm 4 mps 764 mmHg 70%
    18:00 +1°C° 0 mm 3 mps 765 mmHg 72%
    19:00 +1°C° 0 mm 3 mps 765 mmHg 72%
    20:00 +2°C° 0 mm 2 mps 766 mmHg 72%
    21:00 +3°C° 0 mm 1 mps 766 mmHg 72%
    22:00 +2°C° 0 mm 2 mps 766 mmHg 72%
    23:00 +2°C° 0 mm 2 mps 767 mmHg 72%

    27 January, Saturday

    Time Temperature Precipitation Wind Pressure Humidity
    00:00 +2°C° 0 mm 2 mps 767 mmHg 72%
    01:00 +2°C° 0 mm 2 mps 767 mmHg 74%
    02:00 +2°C° 0 mm 2 mps 767 mmHg 76%
    03:00 +1°C° 0 mm 3 mps 767 mmHg 79%
    04:00 +1°C° 0 mm 3 mps 767 mmHg 79%
    05:00 +1°C° 0 mm 3 mps 766 mmHg 80%
    06:00 0°C° 0 mm 4 mps 766 mmHg 81%
    07:00 0°C° 0.1 mm 4 mps 766 mmHg 80%
    08:00 +1°C° 0.1 mm 5 mps 766 mmHg 80%
    09:00 +1°C° 0.1 mm 6 mps 766 mmHg 79%
    10:00 +2°C° 0.8 mm 6 mps 766 mmHg 83%
    11:00 +3°C° 0.8 mm 6 mps 765 mmHg 86%
    12:00 +3°C° 0.8 mm 7 mps 765 mmHg 89%
    13:00 +4°C° 0.9 mm 7 mps 765 mmHg 91%
    14:00 +5°C° 0.9 mm 7 mps 764 mmHg 93%
    15:00 +5°C° 0.9 mm 7 mps 764 mmHg 94%
    16:00 +7°C° 0.3 mm 6 mps 764 mmHg 95%
    17:00 +8°C° 0.3 mm 6 mps 764 mmHg 95%
    18:00 +8°C° 0.3 mm 6 mps 764 mmHg 95%
    19:00 +9°C° 0.1 mm 6 mps 765 mmHg 95%
    20:00 +9°C° 0.1 mm 6 mps 765 mmHg 95%
    21:00 +9°C° 0.1 mm 6 mps 765 mmHg 95%
    22:00 +9°C° 0 mm 6 mps 766 mmHg 95%
    23:00 +9°C° 0 mm 6 mps 766 mmHg 95%
    Show more